Weather History for Troy, AL

Change the Weather History Date:

Friday, August 30, 2013

  Actual Average Record
Temperature  
Mean Temperature 83 °F 79 °F  
Max Temperature 95 °F 90 °F 100 °F (2011)
Min Temperature 71 °F 68 °F 59 °F (2011)
Cooling Degree Days 18 14  
Month to date cooling degree days 444 463  
Year to date cooling degree days 1629 1623  
Since 1 June cooling degree days 1337 1336  
Growing Degree Days 32 (Base 50)    
Moisture  
Dew Point 71 °F    
Average Humidity 71    
Maximum Humidity 93    
Minimum Humidity 49    
Precipitation  
Precipitation 0.00 in 0.10 in 2.31 in (2006)
Month to date precipitation 3.13 4.52  
Year to date precipitation 45.61 37.85  
Sea Level Pressure  
Sea Level Pressure 29.97 in    
Wind  
Wind Speed 4 mph (NW)    
Max Wind Speed 17 mph    
Max Gust Speed 21 mph    
Visibility 5 miles    
Events Thunderstorm    
T = Trace of Precipitation, MM = Missing Value Source: NWS Daily Summary

Daily Weather History Graph

Daily Weather History Graph

Search for Another Location

Airport:

Trip Planner

Search our weather history database for the weather conditions in past years. The results will help you decide how hot, cold, wet, or windy it might be!

Date:

Astronomy

Aug. 30, 2013 Rise Set
Actual Time 6:18 AM CDT 7:10 PM CDT
Civil Twilight 5:53 AM CDT 7:35 PM CDT
Nautical Twilight 5:24 AM CDT 8:04 PM CDT
Astronomical Twilight 4:53 AM CDT 8:34 PM CDT
Moon 1:07 AM CDT (8/30) 3:14 PM CDT (8/30)
Length of Visible Light 13h 41m
Length of Day
12h 51m
Waning Crescent, 29% of the Moon is Illuminated
Aug 30
Waning Crescent
Sep 5
New
Sep 12
First Quarter
Sep 19
Full
Sep 26
Last Quarter

Hourly Weather History & Observations

Time (CDT) Temp. Heat Index Dew Point Humidity Pressure Visibility Wind Dir Wind Speed Gust Speed Precip Events Conditions
12:05 AM 73.4 °F - 71.6 °F 94% 29.99 in 2.5 mi Calm Calm - N/A   Clear
12:19 AM 73.4 °F - 69.8 °F 88% 29.99 in 3.0 mi Calm Calm - N/A   Clear
12:53 AM 73.0 °F - 70.0 °F 90% 29.97 in 3.0 mi Calm Calm - N/A   Clear
1:06 AM 73.4 °F - 69.8 °F 88% 29.99 in 2.5 mi Calm Calm - N/A   Clear
1:28 AM 73.4 °F - 69.8 °F 88% 29.99 in 3.0 mi Calm Calm - N/A   Clear
1:53 AM 73.0 °F - 70.0 °F 90% 29.97 in 4.0 mi Calm Calm - N/A   Clear
2:32 AM 71.6 °F - 69.8 °F 94% 29.98 in 2.5 mi Calm Calm - N/A   Clear
2:48 AM 73.4 °F - 69.8 °F 88% 29.98 in 4.0 mi Calm Calm - N/A   Clear
2:53 AM 73.9 °F - 70.0 °F 87% 29.97 in 4.0 mi Calm Calm - N/A   Clear
3:22 AM 71.6 °F - 69.8 °F 94% 29.98 in 2.5 mi Calm Calm - N/A   Clear
3:37 AM 73.4 °F - 69.8 °F 88% 29.97 in 4.0 mi Calm Calm - N/A   Clear
3:53 AM 72.0 °F - 69.1 °F 91% 29.96 in 3.0 mi Calm Calm - N/A   Clear
4:05 AM 71.6 °F - 68.0 °F 88% 29.98 in 2.0 mi Calm Calm - N/A   Clear
4:22 AM 73.4 °F - 69.8 °F 88% 29.98 in 4.0 mi Calm Calm - N/A   Scattered Clouds
4:53 AM 71.1 °F - 69.1 °F 93% 29.96 in 2.5 mi Calm Calm - N/A   Overcast
5:14 AM 71.6 °F - 69.8 °F 94% 29.98 in 3.0 mi Calm Calm - N/A   Mostly Cloudy
5:41 AM 71.6 °F - 69.8 °F 94% 29.98 in 2.5 mi Calm Calm - N/A   Scattered Clouds
5:49 AM 71.6 °F - 69.8 °F 94% 29.98 in 3.0 mi Calm Calm - N/A   Scattered Clouds
5:53 AM 72.0 °F - 69.1 °F 91% 29.96 in 4.0 mi Calm Calm - N/A   Partly Cloudy
6:51 AM 73.4 °F - 69.8 °F 88% 30.00 in 2.5 mi Calm Calm - N/A   Scattered Clouds
6:53 AM 73.0 °F - 70.0 °F 90% 29.99 in 2.5 mi Calm Calm - N/A   Scattered Clouds
7:40 AM 73.4 °F - 71.6 °F 94% 30.02 in 3.0 mi Calm Calm - N/A   Mostly Cloudy
7:53 AM 75.9 °F - 72.0 °F 87% 30.00 in 3.0 mi Calm Calm - N/A   Mostly Cloudy
8:53 AM 80.1 °F 83.6 °F 71.1 °F 74% 30.01 in 6.0 mi Variable 3.5 mph - N/A   Haze
9:53 AM 84.9 °F 90.1 °F 71.1 °F 63% 30.01 in 7.0 mi WNW 4.6 mph - N/A   Partly Cloudy
10:53 AM 88.0 °F 94.7 °F 72.0 °F 59% 30.01 in 7.0 mi NW 6.9 mph - N/A   Mostly Cloudy
11:53 AM 91.0 °F 98.2 °F 72.0 °F 53% 29.99 in 8.0 mi NW 5.8 mph - N/A   Clear
12:53 PM 93.0 °F 100.7 °F 72.0 °F 50% 29.97 in 9.0 mi NW 8.1 mph - N/A   Clear
1:53 PM 93.9 °F 102.1 °F 72.0 °F 49% 29.95 in 10.0 mi Variable 4.6 mph - N/A   Scattered Clouds
2:53 PM 93.0 °F 100.1 °F 71.1 °F 49% 29.92 in 10.0 mi West 3.5 mph - N/A   Clear
3:11 PM 93.2 °F 102.4 °F 73.4 °F 52% 29.94 in 9.0 mi NW 5.8 mph - N/A Thunderstorm Scattered Clouds
3:26 PM 93.2 °F 102.4 °F 73.4 °F 52% 29.94 in 10.0 mi WNW 11.5 mph - N/A   Partly Cloudy
3:53 PM 90.0 °F 96.4 °F 71.1 °F 54% 29.92 in 10.0 mi NNW 15.0 mph - N/A   Partly Cloudy
4:53 PM 89.1 °F 96.0 °F 72.0 °F 57% 29.91 in 10.0 mi NNW 9.2 mph - N/A   Clear
5:53 PM 87.1 °F 92.8 °F 71.1 °F 59% 29.91 in 10.0 mi NW 6.9 mph - N/A   Clear
6:53 PM 82.9 °F 88.0 °F 72.0 °F 69% 29.91 in 8.0 mi Calm Calm - N/A   Clear
7:53 PM 80.1 °F 84.2 °F 73.0 °F 79% 29.93 in 8.0 mi Calm Calm - N/A   Clear
8:53 PM 78.1 °F - 73.0 °F 84% 29.93 in 7.0 mi Calm Calm - N/A   Clear
9:53 PM 78.1 °F - 73.0 °F 84% 29.94 in 7.0 mi ENE 3.5 mph - N/A   Partly Cloudy
10:53 PM 79.0 °F - 73.0 °F 82% 29.93 in 7.0 mi NE 3.5 mph - N/A   Mostly Cloudy
11:53 PM 78.1 °F - 73.0 °F 84% 29.93 in 6.0 mi West 4.6 mph - N/A   Haze